RH
51 66 85 90 92 93 93 92 92 90 89 87 86 86 82 77 75 74 72 72 72 71 72 71 70 74 77 83 85 85 85 67
44 56 55 67 81 91 92 92 90 89 87 86 88 86 83 78 79 74 72 71 71 70 70 70 69 70 75 78 80 82 75 64
46 43 51 60 64 76 88 89 89 88 85 85 84 74 74 74 76 79 75 75 74 73 71 69 74 77 79 81 79 65 59 54
48 54 56 50 33 70 68 60 70 72 66 71 68 65 62 57 70 82 83 84 83 81 80 80 80 68 70 84 79 59 57 52
48 62 59 53 52 54 53 56 60 67 65 65 64 64 70 74 85 87 92 90 83 85 79 82 65 68 61 62 58 56 58 52
49 56 62 57 53 51 55 54 58 60 64 62 71 72 73 69 67 61 62 62 61 65 66 65 65 57 49 52 53 57 49 46
45 55 61 63 58 63 63 61 64 62 60 61 67 67 72 68 65 62 61 58 59 62 60 58 59 51 48 44 46 49 48 50
50 51 58 52 53 58 64 63 61 64 56 56 55 65 68 67 65 63 61 59 60 58 58 62 62 55 50 47 45 47 46 50
60 85 67 52 52 56 57 50 44 51 51 53 49 54 62 65 67 66 64 63 60 62 64 61 64 56 53 52 51 52 51 49
81 56 55 50 57 50 47 52 54 51 55 54 53 52 54 63 66 68 67 70 66 66 65 63 62 62 62 59 49 48 48 48
45 55 52 46 51 47 49 52 53 50 49 52 54 51 58 64 64 69 70 68 68 67 61 66 66 65 57 54 58 53 48 37
35 52 45 42 46 50 45 46 48 47 50 50 51 50 54 60 61 68 70 66 66 69 74 66 67 64 46 46 57 52 51 56
40 53 52 42 46 48 50 54 48 50 45 48 46 50 52 59 60 60 61 62 66 65 64 65 61 68 63 60 57 58 65 58
50 46 42 40 40 48 50 50 48 47 48 51 50 54 50 43 57 56 59 63 65 69 73 66 60 59 64 59 59 51 57 53
37 38 41 49 46 39 44 46 48 48 48 49 48 48 46 49 54 58 62 63 64 66 67 67 68 61 64 68 64 63 56 53
41 40 38 41 45 48 48 48 52 53 58 54 55 51 52 46 50 59 63 66 66 69 52 72 72 69 70 60 70 75 89 81
47 41 38 40 44 48 52 60 62 61 63 59 55 57 53 50 52 59 66 64 67 71 69 74 77 82 79 77 78 71 74 89
47 41 36 41 45 51 56 56 57 56 56 58 54 54 54 55 53 62 66 68 66 68 77 77 86 86 81 79 84 78 74 75
44 42 38 40 44 44 47 51 55 56 57 58 57 56 59 58 60 63 64 64 65 65 73 78 80 86 83 85 86 84 83 74
45 43 41 40 47 46 50 54 53 53 58 56 60 61 61 59 63 63 63 67 70 71 77 79 80 85 76 78 82 86 86 89
Wind_Speed
11 10 11 11 11 11 11 10 9 10 8 7 5 6 6 7 6 6 6 6 6 6 6 6 6 7 7 8 11 13 9 8
10 11 11 10 8 11 10 9 9 9 8 6 6 5 7 8 7 4 4 2 2 4 5 6 7 8 9 9 11 12 8 8
7 8 7 10 11 9 9 11 9 9 8 9 7 5 8 10 6 7 5 6 6 5 6 8 8 10 12 12 12 5 8 4
7 7 6 0 8 10 9 8 7 7 7 5 4 3 1 3 7 9 9 9 9 8 10 11 8 6 4 12 5 5 3 5
9 7 5 2 5 1 3 3 3 4 5 3 1 1 3 2 3 4 5 8 5 7 7 6 2 2 4 5 6 6 4 4
13 9 6 1 2 2 3 1 3 1 4 3 1 1 3 3 2 4 3 0 3 3 3 4 5 4 4 5 6 5 4 4
12 10 8 6 3 3 4 1 3 3 0 4 3 2 3 2 2 2 3 3 3 2 3 3 4 4 5 5 5 6 6 3
13 14 7 7 4 5 2 2 2 3 3 4 2 2 1 2 3 3 4 3 2 2 4 4 5 4 6 7 7 6 6 6
12 10 9 6 8 5 3 4 1 0 2 5 3 1 3 3 3 4 4 3 3 5 5 4 5 5 7 6 6 7 6 7
14 14 8 7 9 4 2 5 3 3 2 2 5 3 1 2 3 4 4 4 4 4 4 5 5 4 4 5 6 7 9 10
9 14 6 8 8 4 3 5 3 2 3 4 7 6 6 5 4 5 6 4 5 5 6 5 4 4 6 5 5 5 6 7
7 9 5 6 6 5 2 2 2 2 4 5 7 5 6 6 5 6 6 5 5 5 6 5 5 6 9 9 6 7 7 6
12 10 8 3 3 4 5 4 4 5 5 7 5 5 7 7 5 6 6 6 6 6 6 7 6 5 7 8 7 7 7 8
9 9 7 7 5 4 3 2 2 2 4 7 7 7 7 8 6 5 5 5 7 7 6 6 6 7 8 9 11 10 6 7
13 12 10 8 7 6 4 4 4 3 3 3 5 7 5 7 6 5 5 5 5 6 6 7 6 7 8 5 10 12 10 6
10 7 6 6 7 4 2 1 2 2 3 6 7 4 6 7 7 7 6 4 6 5 7 6 5 6 5 8 10 8 5 9
5 5 5 4 5 3 2 4 5 4 3 5 5 6 7 7 7 7 5 5 6 7 6 6 4 4 4 4 4 8 8 4
4 5 1 4 4 2 3 4 4 4 4 4 5 4 5 6 7 6 6 6 6 6 5 8 6 5 5 5 4 2 6 7
2 6 8 5 3 2 3 3 4 6 6 5 7 5 4 6 6 6 4 5 5 5 6 4 3 3 3 2 3 3 3 6
4 5 8 8 5 4 5 7 4 5 6 5 4 3 4 6 7 7 7 8 6 7 5 5 5 5 6 4 4 4 3 4
Wind_Direction
133 120 109 100 101 103 99 103 106 102 97 103 123 120 122 110 91 72 52 37 17 357 344 331 317 317 310 305 304 302 308 293
125 139 154 144 143 122 121 123 124 125 134 168 167 170 174 133 135 123 107 68 339 323 310 293 287 281 272 270 270 289 278 269
127 107 95 138 133 143 154 153 158 156 175 206 185 210 177 164 168 170 175 212 219 228 260 260 268 273 261 262 266 260 275 316
97 121 91 89 128 155 174 151 180 182 173 197 178 107 155 248 178 184 203 217 227 219 236 253 263 261 221 247 261 276 337 284
129 111 132 294 95 97 170 151 136 153 156 90 314 344 206 211 153 194 212 217 228 208 221 236 254 301 304 319 317 324 275 262
137 142 143 121 65 193 140 100 104 187 113 146 63 354 38 8 21 350 317 191 266 229 254 257 250 225 249 278 283 285 297 324
154 145 155 150 147 89 77 332 103 50 153 97 59 340 64 353 322 315 312 291 292 329 319 305 328 282 243 232 275 275 261 274
147 148 155 145 125 89 100 123 126 191 96 84 63 353 35 340 345 318 309 309 336 305 259 252 246 236 257 235 230 249 281 273
106 80 163 130 116 131 195 103 6 337 106 152 155 267 358 348 316 290 279 290 313 284 271 256 248 233 230 232 216 222 221 246
5 161 138 107 101 123 204 110 42 264 219 159 172 178 284 293 311 312 302 310 290 290 288 277 273 263 256 243 231 215 215 214
177 112 118 115 112 180 124 116 238 18 360 37 28 5 25 22 337 308 318 309 289 284 286 262 265 295 289 277 268 241 233 224
51 92 96 127 136 84 321 158 238 22 30 46 38 343 8 348 319 306 301 298 295 303 316 318 301 287 284 287 282 268 255 234
70 94 41 66 93 69 39 25 7 30 10 38 2 13 13 352 320 328 333 323 316 319 322 307 299 300 302 294 297 294 282 260
75 88 61 24 55 73 65 20 358 338 29 0 20 28 1 325 305 302 336 343 333 322 327 325 322 322 314 309 304 295 286 287
70 69 58 30 13 55 28 24 15 33 11 354 327 333 293 302 324 348 339 350 330 315 308 319 329 323 316 311 311 299 308 307
61 71 92 79 21 106 57 46 270 300 5 337 303 322 323 346 346 353 333 341 315 309 333 319 328 313 342 10 7 8 341 313
65 96 83 80 107 46 293 338 356 332 295 284 319 16 356 352 358 338 348 332 325 306 310 330 7 13 358 5 355 355 0 321
33 357 147 166 213 215 20 339 308 328 325 4 17 358 352 338 343 336 335 345 327 333 36 45 36 29 13 12 17 345 324 310
282 342 334 348 137 57 278 273 354 6 23 21 5 333 335 328 332 330 327 320 326 6 1 85 68 63 35 358 321 301 260 287
6 5 326 334 25 10 28 42 35 26 27 360 319 343 322 312 344 336 1 28 14 20 9 352 4 347 317 285 268 262 266 242